This demonstration page uses our WeatherBlox Daily Observations layout. Learn more.

36.17497, -115.13722

Hourly Observations for July 20, 2016

Temp ( °F °C ) Dew Point ( °F °C ) Humidity (%) Winds ( mph kmh ) Pressure ( in mb ) Visibility ( mi km ) Precip ( " mm )
12:53 am 00:53 Clear 93 33.9 37 2.8 14 14 W 8 13 29.77 1008 10 16.09344 0 0
1:53 am 01:53 Clear 91 32.8 36 2.2 14 14 SSW 7 11 29.77 1008 10 16.09344 0 0
2:53 am 02:53 Clear 89 31.7 36 2.2 15 15 S 8 13 29.8 1009 10 16.09344 0 0
3:53 am 03:53 Clear 87 30.6 36 2.2 16 16 SSW 3 6 29.8 1009 10 16.09344 0 0
4:53 am 04:53 Clear 82 27.8 42 5.6 24 24 Calm 29.83 1010 10 16.09344 0 0
5:53 am 05:53 Sunny 81 27.2 41 5 24 24 Calm 29.85 1011 10 16.09344 0 0
6:53 am 06:53 Sunny 83 28.3 43 6.1 24 24 NNE 3 6 29.83 1010 10 16.09344 0 0
7:53 am 07:53 Sunny 88 31.1 39 3.9 18 18 NE 6 9 29.85 1011 10 16.09344 0 0
8:53 am 08:53 Sunny 94 34.4 35 1.7 13 13 SSE 13 20 29.83 1010 10 16.09344 0 0
9:53 am 09:53 Sunny 98 36.7 35 1.7 11 11 SSE 12 19 29.83 1010 10 16.09344 0 0
10:53 am 10:53 Sunny 99 37.2 36 2.2 11 11 SE 9 15 29.8 1009 10 16.09344 0 0
11:53 am 11:53 Sunny 102 38.9 40 4.4 12 12 S 13 20 29.77 1008 10 16.09344 0 0
12:53 pm 12:53 Sunny 104 40 40 4.4 11 11 S 14 22 29.77 1008 10 16.09344 0 0
1:53 pm 13:53 Sunny 105 40.6 38 3.3 10 10 S 10 17 29.71 1006 10 16.09344 0 0
2:53 pm 14:53 Sunny 105 40.6 37 2.8 10 10 SSW 15 24 29.68 1005 10 16.09344 0 0
3:53 pm 15:53 Sunny 108 42 36 2 8 8 SW 17 28 29.65 1004 10 16.09344 0 0
4:53 pm 16:53 Sunny 107 41.7 37 2.8 9 9 S 14 22 29.65 1004 10 16.09344 0 0
5:53 pm 17:53 Sunny 106 41.1 37 2.8 9 9 SSW 9 15 29.65 1004 10 16.09344 0 0
6:53 pm 18:53 Sunny 105 40.6 37 2.8 10 10 WSW 13 20 29.65 1004 10 16.09344 0 0
7:53 pm 19:53 Sunny 102 38.9 37 2.8 10 10 W 8 13 29.68 1005 10 16.09344 0 0
8:53 pm 20:53 Clear 100 37.8 37 2.8 11 11 WSW 8 13 29.71 1006 10 16.09344 0 0
9:53 pm 21:53 Clear 98 36.7 38 3.3 12 12 SSW 5 7 29.71 1006 10 16.09344 0 0
10:53 pm 22:53 Clear 93 33.9 40 4.4 16 16 S 7 11 29.74 1007 10 16.09344 0 0
11:53 pm 23:53 Clear 93 33.9 38 3.3 14 14 SSW 6 9 29.77 1008 10 16.09344 0 0

Powered by AerisWeather